TimeEET,TemperatureF,Dew PointF,Humidity,Sea Level PressureIn,VisibilityMPH,Wind Direction,Wind SpeedMPH,Gust SpeedMPH,PrecipitationIn,Events,Conditions,WindDirDegrees,DateUTC
12:00 AM,32,28,81,30.44,6,NW,2.2,,,,,310,2010-03-18 22:00:00
12:00 AM,39.2,33.8,81,30.42,-9999.0,Calm,Calm,-,N/A,,Clear,0,2010-03-18 22:00:00
12:30 AM,37.4,32.0,81,30.42,-9999.0,Calm,Calm,-,N/A,,Clear,0,2010-03-18 22:30:00
1:00 AM,29,28,94,30.45,6,Calm,Calm,,,,,,2010-03-18 23:00:00
1:00 AM,35.6,32.0,87,30.42,-9999.0,Calm,Calm,-,N/A,,Clear,0,2010-03-18 23:00:00
1:30 AM,35.6,32.0,87,30.42,-9999.0,Calm,Calm,-,N/A,,Clear,0,2010-03-18 23:30:00
2:00 AM,28,28,99,30.46,6,Calm,Calm,,,,,,2010-03-19 00:00:00
2:00 AM,35.6,33.8,93,30.42,-9999.0,West,2.3,-,N/A,,Clear,270,2010-03-19 00:00:00
2:30 AM,33.8,32.0,93,30.42,-9999.0,WNW,3.5,-,N/A,,Clear,290,2010-03-19 00:30:00
3:00 AM,28,28,98,30.46,6,WNW,2.2,,,,,290,2010-03-19 01:00:00
3:00 AM,33.8,32.0,93,30.42,-9999.0,WSW,1.2,-,N/A,,Clear,250,2010-03-19 01:00:00
3:30 AM,33.8,32.0,93,30.45,-9999.0,WNW,1.2,-,N/A,,Clear,300,2010-03-19 01:30:00
4:00 AM,28,28,97,30.47,6,Calm,Calm,,,,,,2010-03-19 02:00:00
4:00 AM,33.8,30.2,87,30.45,-9999.0,Variable,1.2,-,N/A,,Clear,0,2010-03-19 02:00:00
4:30 AM,32.0,30.2,93,30.45,-9999.0,NNW,3.5,-,N/A,,Clear,330,2010-03-19 02:30:00
5:00 AM,27,27,98,30.48,6,North,2.2,,,,,350,2010-03-19 03:00:00
5:00 AM,33.8,30.2,87,30.45,-9999.0,NW,2.3,-,N/A,,Clear,320,2010-03-19 03:00:00
5:30 AM,32.0,30.2,93,30.45,-9999.0,Calm,Calm,-,N/A,,Clear,0,2010-03-19 03:30:00
6:00 AM,26,26,98,30.48,6,North,2.2,,,,,350,2010-03-19 04:00:00
6:00 AM,33.8,30.2,87,30.45,-9999.0,Calm,Calm,-,N/A,,Clear,0,2010-03-19 04:00:00
6:30 AM,33.8,30.2,87,30.48,-9999.0,Variable,1.2,-,N/A,,Clear,0,2010-03-19 04:30:00
7:00 AM,27,27,98,30.50,6,NNW,2.2,,,,,340,2010-03-19 05:00:00
7:00 AM,33.8,30.2,87,30.48,-9999.0,Variable,1.2,-,N/A,,Clear,0,2010-03-19 05:00:00
7:30 AM,37.4,30.2,75,30.48,-9999.0,Calm,Calm,-,N/A,,Clear,0,2010-03-19 05:30:00
8:00 AM,33,33,99,30.51,6,North,2.2,,,,,350,2010-03-19 06:00:00
8:00 AM,39.2,32.0,75,30.48,3.1,Variable,1.2,-,N/A,,Mist,0,2010-03-19 06:00:00
8:30 AM,42.8,33.8,70,30.48,2.5,Variable,1.2,-,N/A,,Mist,0,2010-03-19 06:30:00
9:00 AM,45,29,40,30.51,6,NW,2.2,,,,,320,2010-03-19 07:00:00
9:00 AM,46.4,32.0,57,30.48,5.0,Variable,1.2,-,N/A,,Unknown,0,2010-03-19 07:00:00
9:30 AM,48.2,32.0,54,30.51,-9999.0,Variable,2.3,-,N/A,,Clear,0,2010-03-19 07:30:00
10:00 AM,51,27,26,30.52,6,West,2.2,,,,,280,2010-03-19 08:00:00
10:00 AM,50.0,32.0,50,30.48,-9999.0,Variable,2.3,-,N/A,,Clear,0,2010-03-19 08:00:00
10:30 AM,51.8,32.0,47,30.48,-9999.0,Variable,2.3,-,N/A,,Clear,0,2010-03-19 08:30:00
11:00 AM,54,25,21,30.51,6,SSW,2.2,,,,,200,2010-03-19 09:00:00
11:00 AM,53.6,30.2,41,30.48,-9999.0,Variable,2.3,-,N/A,,Clear,0,2010-03-19 09:00:00
11:30 AM,55.4,30.2,38,30.48,-9999.0,WSW,4.6,-,N/A,,Clear,240,2010-03-19 09:30:00
12:00 PM,55,24,18,30.51,6,WSW,4.5,,,,,240,2010-03-19 10:00:00
12:00 PM,55.4,30.2,38,30.48,-9999.0,Variable,3.5,-,N/A,,Clear,0,2010-03-19 10:00:00
12:30 PM,57.2,30.2,36,30.48,-9999.0,SW,5.8,-,N/A,,Clear,230,2010-03-19 10:30:00
1:00 PM,56,23,16,30.49,6,WSW,6.7,,,,,250,2010-03-19 11:00:00
1:00 PM,57.2,30.2,36,30.45,-9999.0,SW,6.9,-,N/A,,Clear,230,2010-03-19 11:00:00
1:30 PM,57.2,30.2,36,30.45,-9999.0,WSW,6.9,-,N/A,,Clear,250,2010-03-19 11:30:00
2:00 PM,57,24,17,30.47,6,WSW,6.7,,,,,240,2010-03-19 12:00:00
2:00 PM,57.2,30.2,36,30.45,-9999.0,West,5.8,-,N/A,,Clear,260,2010-03-19 12:00:00
2:30 PM,59.0,28.4,31,30.42,-9999.0,SW,8.1,-,N/A,,Clear,220,2010-03-19 12:30:00
3:00 PM,58,23,15,30.45,6,SW,6.7,,,,,220,2010-03-19 13:00:00
3:00 PM,59.0,28.4,31,30.42,-9999.0,WSW,8.1,-,N/A,,Clear,240,2010-03-19 13:00:00
3:30 PM,59.0,28.4,31,30.42,-9999.0,WSW,9.2,-,N/A,,Clear,250,2010-03-19 13:30:00
4:00 PM,58,23,15,30.44,6,SW,6.7,,,,,220,2010-03-19 14:00:00
4:00 PM,59.0,28.4,31,30.42,-9999.0,West,9.2,-,N/A,,Clear,260,2010-03-19 14:00:00
4:30 PM,59.0,30.2,34,30.39,-9999.0,WSW,8.1,-,N/A,,Clear,240,2010-03-19 14:30:00
5:00 PM,57,23,16,30.42,6,SW,8.9,,,,,230,2010-03-19 15:00:00
5:00 PM,59.0,30.2,34,30.39,-9999.0,West,10.4,-,N/A,,Clear,260,2010-03-19 15:00:00
5:30 PM,57.2,30.2,36,30.39,-9999.0,WSW,9.2,-,N/A,,Clear,250,2010-03-19 15:30:00
6:00 PM,56,23,17,30.42,6,WSW,4.5,,,,,240,2010-03-19 16:00:00
6:00 PM,57.2,30.2,36,30.39,-9999.0,West,8.1,-,N/A,,Clear,260,2010-03-19 16:00:00
6:30 PM,55.4,32.0,41,30.39,-9999.0,West,4.6,-,N/A,,Clear,260,2010-03-19 16:30:00
7:00 PM,51,23,21,30.41,6,WSW,4.5,,,,,240,2010-03-19 17:00:00
7:00 PM,53.6,32.0,44,30.39,-9999.0,WSW,2.3,-,N/A,,Clear,240,2010-03-19 17:00:00
7:30 PM,53.6,33.8,47,30.39,-9999.0,West,1.2,-,N/A,,Clear,260,2010-03-19 17:30:00
8:00 PM,40,26,46,30.43,6,WSW,2.2,,,,,240,2010-03-19 18:00:00
8:00 PM,51.8,33.8,50,30.39,-9999.0,Calm,Calm,-,N/A,,Clear,0,2010-03-19 18:00:00
8:30 PM,51.8,33.8,50,30.39,-9999.0,Calm,Calm,-,N/A,,Clear,0,2010-03-19 18:30:00
9:00 PM,37,30,67,30.42,6,Calm,Calm,,,,,,2010-03-19 19:00:00
9:00 PM,50.0,33.8,54,30.39,-9999.0,Calm,Calm,-,N/A,,Clear,0,2010-03-19 19:00:00
9:30 PM,48.2,33.8,58,30.39,-9999.0,Calm,Calm,-,N/A,,Clear,0,2010-03-19 19:30:00
10:00 PM,35,31,79,30.42,6,Calm,Calm,,,,,,2010-03-19 20:00:00
10:00 PM,48.2,33.8,58,30.39,-9999.0,Calm,Calm,-,N/A,,Clear,0,2010-03-19 20:00:00
10:30 PM,46.4,33.8,62,30.36,-9999.0,Calm,Calm,-,N/A,,Clear,0,2010-03-19 20:30:00
11:00 PM,33,30,82,30.42,6,Calm,Calm,,,,,,2010-03-19 21:00:00
11:00 PM,42.8,33.8,70,30.36,-9999.0,Calm,Calm,-,N/A,,Clear,0,2010-03-19 21:00:00
11:30 PM,42.8,33.8,70,30.36,-9999.0,Calm,Calm,-,N/A,,Clear,0,2010-03-19 21:30:00